2018-096L (43729 NORAD) Tracking and Keplerian Element Data

This shows tracking and keplerian element data for the satellite.

Feedback or suggestion? Click here.




ElementValue
Catalog43729
Name2018-096L
Epoch Orbit457
Epoch Day363.18919009
Epoch Year2018
RAAN68.2235
Inclination97.4828
Eccentricity0.0017834
Argument of Perigee217.2828
Mean Anonmoly142.7174
Mean Motion15.26304491
Decay Rate1.697E-05
L11 43729U 18096L 18363.18919009 .00001697 00000-0 68047-4 0 9999
L22 43729 97.4828 68.2235 0017834 217.2828 142.7174 15.26304491 4571

Live tracking and technical data element details for 2018-096L (NORAD 43729). 2018-096L can be tracked NOW for your location showing map with azimuth and elevation plus other details from your city location.

Track the satellite on the map from your city or location and see movement details for azimuth, elevation, latitude, longitude, range, height, and movement on the map or in text.







IsCatalogInMostPopularTable: catalog: 43729, numindb: 95
Update: records affected: 1



GetName: 43729 2018-096L

Hit Count: updated at: Sat, 20 Jul 2019 22:26:40 GMT